Flag for Germany Weather past 2 weeks in Gerolstein, Rhineland-Palatinate, Germany

Now
52 °F

Overcast.


Feels Like: 52 °F
Forecast: 46 / 62 °F
Wind: 2 mph from Northeast

Location: Nuerburg-Barweiler


UV Index: 3 (Moderate)

Visibility: 6 mi


Pressure: 29.91 "Hg

Humidity: 84%

Dew point: 48 °F

Location of GerolsteinLocation

Historic Weather in Gerolstein

°F

Gerolstein temperature yesterday

Maximum temperature yesterday: 64 °F (at 3:00 PM)
Minimum temperature yesterday: 48 °F (at 2:00 AM)
Average temperature yesterday: 54 °F

Past Weeks' High & Low Weather Summary

 TemperatureHumidityPressure
High67 °F (Apr 23, 2:00 PM)99% (Apr 22, 8:00 AM)30.46 "Hg (Apr 22, 8:00 AM)
Low31 °F (Apr 16, 7:00 AM)28% (Apr 17, 6:00 PM)29.57 "Hg (Apr 21, 3:00 PM)
Average48 °F72%30.04 "Hg
* Reported Apr 10 3:00 AM — Apr 25 3:00 AM, Gerolstein, Weather by CustomWeather, © 2014

Note: Actual official high and low records may vary slightly from our data, if they occured in-between our weather recording intervals... More about our weather records

Advertising

Historic Weather Conditions — Data for Previous 24 hours

 ConditionsComfort  
Time TempWeatherWind HumidityBarometerVisibility
3:00 AM
Apr 25
52 °FOvercast.2 mph84%29.91 "Hg6 mi
2:00 AM51 °FOvercast.3 mph87%29.94 "Hg7 mi
1:00 AM50 °FOvercast.1 mph90%29.96 "Hg10 mi
12:00 AM51 °FOvercast.2 mph88%29.97 "Hg13 mi
11:00 PM
Apr 24
52 °FOvercast.3 mph85%29.98 "Hg14 mi
10:00 PM53 °FOvercast.5 mph85%29.98 "Hg16 mi
9:00 PM54 °FPassing clouds.2 mph93%29.98 "Hg25 mi
8:00 PM56 °FOvercast.2 mph87%29.99 "Hg25 mi
7:00 PM56 °FOvercast.3 mph86%30.00 "Hg31 mi
6:00 PM56 °FOvercast.2 mph86%30.00 "Hg31 mi
5:00 PM58 °FThunderstorms. Overcast.2 mph74%30.01 "Hg28 mi
4:00 PM60 °FThunderstorms. Overcast.1 mph73%30.02 "Hg16 mi
3:00 PM64 °FOvercast.5 mph49%30.02 "Hg34 mi
2:00 PM62 °FPartly sunny.5 mph58%30.04 "Hg37 mi
1:00 PM62 °FOvercast.2 mph61%30.06 "Hg37 mi
12:00 PM60 °FOvercast.2 mph63%30.08 "Hg37 mi
10:00 AM52 °FOvercast.1 mph84%30.12 "Hg31 mi
9:00 AM51 °FOvercast.1 mph85%30.11 "Hg31 mi
8:00 AM49 °FOvercast.2 mph84%30.12 "Hg31 mi
7:00 AM50 °FOvercast.2 mph85%30.11 "Hg31 mi
6:00 AM54 °FOvercast.2 mph71%30.09 "Hg31 mi
4:00 AM50 °FOvercast.No wind85%30.12 "Hg22 mi
Weather by CustomWeather, © 2014

See weather overview